Weather History for Faribault, MN

Change the Weather History Date:

Wednesday, March 14, 2012

  Actual Average Record
Temperature  
Mean Temperature 58 °F -  
Max Temperature 69 °F 38 °F 69 °F (2012)
Min Temperature 48 °F 21 °F -13 °F (1975)
Degree Days  
Heating Degree Days 6    
Growing Degree Days 8 (Base 50)    
Moisture  
Dew Point 45 °F    
Average Humidity 62    
Maximum Humidity 82    
Minimum Humidity 40    
Precipitation  
Precipitation 0.00 in - - ()
Sea Level Pressure  
Sea Level Pressure 29.80 in    
Wind  
Wind Speed 10 mph (SSW)    
Max Wind Speed 14 mph    
Max Gust Speed 22 mph    
Visibility 10 miles    
Events      
Averages and records for this station are not official NWS values.
T = Trace of Precipitation, MM = Missing Value Source: NWS Daily Summary

Daily Weather History Graph

Daily Weather History Graph

Search for Another Location

Airport:

Trip Planner

Search our weather history database for the weather conditions in past years. The results will help you decide how hot, cold, wet, or windy it might be!

Date:

Astronomy

Mar. 14, 2012 Rise Set
Actual Time 7:26 AM CDT 7:18 PM CDT
Civil Twilight 6:57 AM CDT 7:47 PM CDT
Nautical Twilight 6:23 AM CDT 8:21 PM CDT
Astronomical Twilight 5:49 AM CDT 8:55 PM CDT
Moon 2:09 AM CDT (3/14) 11:22 AM CDT (3/14)
Length of Visible Light 12h 50m
Length of Day
11h 52m
Waning Gibbous, 54% of the Moon is Illuminated
Mar 14
Waning Gibbous
Mar 14
Last Quarter
Mar 22
New
Mar 30
First Quarter
Apr 6
Full

Hourly Weather History & Observations

Time (CDT) Temp. Windchill Dew Point Humidity Pressure Visibility Wind Dir Wind Speed Gust Speed Precip Events Conditions
12:14 AM 55.4 °F - 42.8 °F 63% 29.84 in 10.0 mi SSE 12.7 mph - N/A   Clear
12:34 AM 55.4 °F - 42.8 °F 63% 29.84 in 10.0 mi SSE 12.7 mph 18.4 mph N/A   Clear
12:54 AM 55.4 °F - 42.8 °F 63% 29.83 in 10.0 mi SSE 10.4 mph 17.3 mph N/A   Clear
1:14 AM 55.4 °F - 42.8 °F 63% 29.82 in 10.0 mi SSE 11.5 mph - N/A   Clear
1:34 AM 57.2 °F - 44.6 °F 63% 29.81 in 10.0 mi SSE 12.7 mph - N/A   Clear
1:54 AM 57.2 °F - 44.6 °F 63% 29.80 in 10.0 mi SSE 12.7 mph 18.4 mph N/A   Clear
2:14 AM 57.2 °F - 44.6 °F 63% 29.80 in 10.0 mi SSE 11.5 mph 19.6 mph N/A   Clear
2:34 AM 57.2 °F - 44.6 °F 63% 29.79 in 10.0 mi SSE 11.5 mph - N/A   Clear
2:54 AM 57.2 °F - 44.6 °F 63% 29.79 in 10.0 mi SSE 13.8 mph 19.6 mph N/A   Clear
3:14 AM 55.4 °F - 44.6 °F 67% 29.78 in 10.0 mi SSE 13.8 mph 19.6 mph N/A   Clear
3:33 AM 55.4 °F - 44.6 °F 67% 29.78 in 10.0 mi SSE 13.8 mph 17.3 mph N/A   Clear
3:54 AM 55.4 °F - 44.6 °F 67% 29.76 in 10.0 mi SSE 13.8 mph 21.9 mph N/A   Clear
4:14 AM 55.4 °F - 44.6 °F 67% 29.75 in 10.0 mi SSE 11.5 mph - N/A   Clear
4:34 AM 53.6 °F - 44.6 °F 72% 29.75 in 10.0 mi SSE 11.5 mph - N/A   Clear
4:54 AM 53.6 °F - 44.6 °F 72% 29.74 in 10.0 mi SSE 11.5 mph - N/A   Clear
5:14 AM 55.4 °F - 44.6 °F 67% 29.74 in 10.0 mi SSE 9.2 mph - N/A   Clear
5:34 AM 55.4 °F - 44.6 °F 67% 29.74 in 10.0 mi SSE 13.8 mph 18.4 mph N/A   Clear
5:54 AM 53.6 °F - 44.6 °F 72% 29.74 in 10.0 mi South 11.5 mph 17.3 mph N/A   Clear
6:14 AM 51.8 °F - 44.6 °F 76% 29.75 in 10.0 mi South 12.7 mph 18.4 mph N/A   Clear
6:34 AM 51.8 °F - 44.6 °F 76% 29.74 in 10.0 mi South 11.5 mph - N/A   Clear
7:14 AM 48.2 °F - 42.8 °F 82% 29.74 in 10.0 mi South 10.4 mph - N/A   Clear
7:34 AM 48.2 °F - 42.8 °F 82% 29.75 in 10.0 mi South 9.2 mph - N/A   Clear
7:54 AM 48.2 °F - 42.8 °F 82% 29.75 in 10.0 mi South 8.1 mph - N/A   Clear
8:14 AM 48.2 °F - 42.8 °F 82% 29.75 in 10.0 mi South 10.4 mph - N/A   Clear
8:34 AM 50.0 °F - 44.6 °F 82% 29.75 in 10.0 mi South 11.5 mph - N/A   Clear
8:54 AM 51.8 °F - 44.6 °F 76% 29.76 in 10.0 mi South 9.2 mph - N/A   Clear
9:14 AM 53.6 °F - 46.4 °F 77% 29.79 in 10.0 mi SSW 8.1 mph - N/A   Clear
9:33 AM 53.6 °F - 46.4 °F 77% 29.79 in 10.0 mi South 8.1 mph - N/A   Clear
9:54 AM 55.4 °F - 48.2 °F 77% 29.77 in 10.0 mi South 6.9 mph - N/A   Clear
10:14 AM 57.2 °F - 48.2 °F 72% 29.78 in 10.0 mi South 10.4 mph - N/A   Clear
10:34 AM 60.8 °F - 48.2 °F 63% 29.78 in 10.0 mi South 6.9 mph 16.1 mph N/A   Clear
10:54 AM 60.8 °F - 48.2 °F 63% 29.78 in 10.0 mi SSW 11.5 mph 16.1 mph N/A   Clear
11:14 AM 62.6 °F - 48.2 °F 59% 29.79 in 10.0 mi SW 13.8 mph - N/A   Clear
11:34 AM 62.6 °F - 48.2 °F 59% 29.79 in 10.0 mi SSW 8.1 mph 17.3 mph N/A   Clear
11:54 AM 62.6 °F - 48.2 °F 59% 29.79 in 10.0 mi SW 10.4 mph - N/A   Clear
12:14 PM 62.6 °F - 46.4 °F 55% 29.80 in 10.0 mi SW 8.1 mph - N/A   Clear
12:34 PM 64.4 °F - 46.4 °F 52% 29.80 in 10.0 mi SSW 11.5 mph 16.1 mph N/A   Clear
12:54 PM 64.4 °F - 46.4 °F 52% 29.80 in 10.0 mi SSW 6.9 mph - N/A   Clear
1:14 PM 66.2 °F - 46.4 °F 49% 29.79 in 10.0 mi West 6.9 mph - N/A   Clear
1:34 PM 66.2 °F - 46.4 °F 49% 29.79 in 10.0 mi WSW 5.8 mph - N/A   Clear
1:54 PM 66.2 °F - 46.4 °F 49% 29.79 in 10.0 mi SSW 4.6 mph - N/A   Clear
2:15 PM 66.2 °F - 46.4 °F 49% 29.79 in 10.0 mi SSW 6.9 mph - N/A   Clear
2:34 PM 66.2 °F - 44.6 °F 46% 29.79 in 10.0 mi SW 6.9 mph - N/A   Clear
2:54 PM 68.0 °F - 44.6 °F 43% 29.79 in 10.0 mi WSW 4.6 mph - N/A   Clear
3:14 PM 69.8 °F - 44.6 °F 40% 29.79 in 10.0 mi SSW 8.1 mph - N/A   Clear
3:34 PM 69.8 °F - 44.6 °F 40% 29.80 in 10.0 mi SW 6.9 mph - N/A   Clear
3:54 PM 69.8 °F - 44.6 °F 40% 29.80 in 10.0 mi West 5.8 mph - N/A   Clear
4:14 PM 69.8 °F - 44.6 °F 40% 29.81 in 10.0 mi WSW 6.9 mph - N/A   Clear
4:34 PM 69.8 °F - 46.4 °F 43% 29.81 in 10.0 mi WSW 5.8 mph - N/A   Clear
4:54 PM 69.8 °F - 46.4 °F 43% 29.82 in 10.0 mi WSW 5.8 mph - N/A   Clear
5:14 PM 69.8 °F - 46.4 °F 43% 29.82 in 10.0 mi SW 5.8 mph - N/A   Clear
5:34 PM 69.8 °F - 46.4 °F 43% 29.83 in 10.0 mi WSW 6.9 mph - N/A   Clear
5:53 PM 68.0 °F - 46.4 °F 46% 29.83 in 10.0 mi WSW 4.6 mph - N/A   Clear
6:14 PM 68.0 °F - 48.2 °F 49% 29.84 in 10.0 mi West 4.6 mph - N/A   Clear
6:34 PM 66.2 °F - 48.2 °F 52% 29.84 in 10.0 mi West 4.6 mph - N/A   Clear
6:54 PM 64.4 °F - 46.4 °F 52% 29.84 in 10.0 mi Calm Calm - N/A   Clear
7:34 PM 57.2 °F - 46.4 °F 67% 29.86 in 10.0 mi Calm Calm - N/A   Clear
7:54 PM 57.2 °F - 46.4 °F 67% 29.86 in 10.0 mi West 4.6 mph - N/A   Clear
8:14 PM 55.4 °F - 46.4 °F 72% 29.87 in 10.0 mi WNW 4.6 mph - N/A   Clear
8:34 PM 55.4 °F - 46.4 °F 72% 29.88 in 10.0 mi WNW 3.5 mph - N/A   Clear
8:54 PM 53.6 °F - 46.4 °F 77% 29.88 in 10.0 mi Calm Calm - N/A   Clear
9:14 PM 51.8 °F - 44.6 °F 76% 29.88 in 10.0 mi NW 3.5 mph - N/A   Clear
9:34 PM 50.0 °F - 44.6 °F 82% 29.88 in 10.0 mi Calm Calm - N/A   Clear
9:54 PM 53.6 °F - 44.6 °F 72% 29.88 in 10.0 mi Calm Calm - N/A   Clear
10:14 PM 48.2 °F - 42.8 °F 82% 29.88 in 10.0 mi Calm Calm - N/A   Clear
10:34 PM 48.2 °F - 42.8 °F 82% 29.89 in 7.0 mi Calm Calm - N/A   Clear
11:14 PM 46.4 °F 45.2 °F 42.8 °F 87% 29.89 in 7.0 mi SW 3.5 mph - N/A   Clear
11:34 PM 44.6 °F - 41.0 °F 87% 29.89 in 5.0 mi Calm Calm - N/A   Clear
11:54 PM 44.6 °F - 42.8 °F 93% 29.89 in 4.0 mi Calm Calm - N/A   Clear